[[{"header":{"parameterUnit":"m.s-1","parameterCategory":2,"la1":30.2991,"la2":30.254,"lo1":-89.0895,"lo2":-89.0444,"dx":0.0017,"dy":0.0017,"nx":28,"ny":28,"refTime":"2022-11-07T03:00:00:Z","depth":"0","parameterNumber":2,"parameterNumberName":"U-component_of_CURRENTS"},"data":[0,0,0,0,0,0,0,0,0,0,0,0,0,0,0,0,0,0,0,0,0,0,0,0,0,0,0,0,0,0,0,0,0,0,0,0,0,0,0,0,0,0,0,0,0,0,0,0,0,0,0,0,0,0,0,0,0,0,-0.2024,-0.2024,0,-0.2067,-0.2067,-0.2068,-0.2021,-0.202,-0.2018,-0.2016,-0.1974,-0.1974,-0.1975,0,0,0,0,0,0,0,0,0,0,0,0,0,-0.1888,-0.1891,-0.2023,-0.2024,-0.2025,-0.2067,-0.2067,-0.2068,-0.2022,-0.2019,-0.2017,-0.2015,-0.1974,-0.1974,-0.1975,0,0,0,0,0,0,0,0,0,0,0,0,0,-0.194,-0.1892,-0.2023,-0.2007,-0.2006,-0.2067,-0.2067,-0.2068,-0.2022,-0.2019,-0.2017,-0.2014,-0.1974,-0.1974,-0.1975,-0.2031,0,0,-0.1977,-0.1978,0,0,0,0,0,0,0,0,-0.1937,-0.1945,-0.2009,-0.2008,-0.2007,-0.2036,-0.2004,-0.2052,-0.2023,-0.2015,-0.2016,-0.2013,-0.1989,-0.1989,-0.2003,-0.2029,-0.2027,-0.1977,-0.1978,-0.1978,-0.1978,0,0,0,0,0,0,0,-0.1934,-0.1943,-0.204,-0.201,-0.2009,-0.1993,-0.1998,-0.2013,-0.2014,-0.2016,-0.2013,-0.2019,-0.1988,-0.2002,-0.2001,-0.2027,-0.1977,-0.1978,-0.1978,-0.1979,-0.2077,-0.2079,0,0,0,0,0,0,-0.1934,-0.194,-0.2039,-0.2041,-0.1966,-0.1998,-0.2003,-0.2029,-0.2016,-0.2012,-0.2022,-0.2017,-0.2002,-0.2,-0.1999,-0.2064,-0.1978,-0.1979,-0.1979,-0.2075,-0.2078,-0.208,0,0,0,0,0,0,-0.1931,-0.1943,-0.2037,-0.199,-0.2001,-0.2003,-0.2033,-0.2032,-0.2035,-0.2021,-0.2015,-0.2024,-0.2,-0.1998,-0.2015,-0.2061,-0.1979,-0.198,-0.2072,-0.2076,-0.2079,-0.2192,0,0,0,0,0,0,-0.1928,-0.1943,-0.1963,-0.1991,-0.2004,-0.208,-0.2035,-0.2034,-0.2044,-0.2038,-0.2023,-0.2016,-0.1998,-0.2014,-0.2016,-0.206,-0.198,-0.207,-0.2074,-0.2078,-0.2186,-0.2199,-0.221,0,0,0,0,0,-0.1923,-0.1972,-0.1965,-0.1976,-0.2033,-0.2082,-0.2088,-0.2078,-0.2046,-0.2067,-0.205,-0.2016,-0.2041,-0.2017,-0.2018,-0.2064,-0.2068,-0.2073,-0.2077,-0.218,-0.2196,-0.221,0,0,0,0,0,0,-0.1939,-0.1973,-0.1965,-0.2025,-0.205,-0.2074,-0.2099,-0.2084,-0.2091,-0.2081,-0.2047,-0.2043,-0.2082,-0.2057,-0.2031,-0.2104,-0.2049,-0.2054,-0.2126,-0.2141,-0.2154,-0.2148,-0.1981,0,0,0,0,0,-0.1951,-0.1984,-0.2015,-0.2061,-0.2079,-0.2086,-0.2102,-0.2099,-0.2109,-0.2108,-0.2097,-0.209,-0.211,-0.2108,-0.2124,-0.216,-0.2091,-0.2189,-0.2202,-0.2212,-0.2209,-0.2168,-0.2175,-0.2096,-0.2096,-0.2096,0,0,-0.1965,-0.1992,-0.2008,-0.2064,-0.2083,-0.2132,-0.209,-0.213,-0.2163,-0.2105,-0.2145,-0.2141,-0.2133,-0.2181,-0.2195,-0.2158,-0.2192,-0.2218,-0.2227,-0.2218,-0.2174,-0.2181,-0.2187,-0.2099,-0.2099,-0.2098,0,0,-0.2015,-0.2042,-0.2081,-0.2116,-0.2154,-0.2169,-0.2179,-0.2209,-0.2213,-0.2252,-0.2229,-0.2244,-0.2262,-0.2273,-0.2277,-0.2365,-0.2269,-0.237,-0.2418,-0.2379,-0.2384,-0.2388,-0.2275,-0.2268,-0.2364,-0.2364,-0.2365,0,-0.2025,-0.2092,-0.2102,-0.2158,-0.2194,-0.2187,-0.2245,-0.2268,-0.2294,-0.2295,-0.2274,-0.2301,-0.2309,-0.2351,-0.2395,-0.2394,-0.2322,-0.2363,-0.2393,-0.2396,-0.2398,-0.2281,-0.2272,-0.237,-0.237,-0.2369,-0.2369,0,-0.2099,-0.2161,-0.2198,-0.226,-0.2299,-0.2356,-0.2387,-0.2412,-0.2405,-0.2404,-0.2434,-0.2439,-0.2437,-0.2465,-0.2464,-0.2499,-0.2424,-0.2422,-0.2351,-0.2412,-0.2285,-0.2273,-0.2379,-0.2377,-0.2375,-0.2374,0,0,-0.2099,-0.2222,-0.2234,-0.2276,-0.2361,-0.2393,-0.2463,-0.2505,-0.2497,-0.2529,-0.2516,-0.2596,-0.2559,-0.2563,-0.2559,-0.2543,-0.2513,-0.2497,-0.2493,-0.2375,-0.2359,-0.2305,-0.2286,-0.2511,-0.2511,-0.251,-0.225,0,-0.215,-0.2274,-0.232,-0.2422,-0.2488,-0.2515,-0.2559,-0.2587,-0.2584,-0.2568,-0.2574,-0.2568,-0.2607,-0.2588,-0.2596,-0.2531,-0.2493,-0.2579,-0.2325,-0.2316,-0.2255,-0.2276,-0.2176,-0.1938,-0.2238,-0.2236,-0.2234,0,-0.2198,-0.228,-0.24,-0.2489,-0.2511,-0.2559,-0.2592,-0.2629,-0.2618,-0.2604,-0.2604,-0.2573,-0.2579,-0.2586,-0.2502,-0.2547,-0.2474,-0.2415,-0.2403,-0.2306,-0.2244,-0.1933,-0.1904,-0.1899,-0.2215,-0.2217,-0.2218,0,-0.2186,-0.2323,-0.2416,-0.246,-0.2561,-0.2591,-0.2622,-0.2632,-0.26,-0.2609,-0.254,-0.2561,-0.2492,-0.2469,-0.2393,-0.2429,-0.2246,-0.2266,-0.2133,-0.2123,-0.1965,-0.1944,-0.1895,-0.2195,-0.2195,-0.2196,-0.2197,0,-0.2232,-0.2298,-0.2412,-0.2468,-0.2501,-0.2582,-0.2571,-0.2598,-0.2562,-0.2476,-0.254,-0.2446,-0.2459,-0.236,-0.2341,-0.2186,-0.2198,-0.2127,-0.2069,-0.1999,-0.1986,-0.1916,-0.1951,-0.2186,-0.2188,-0.219,-0.2192,0,-0.2214,-0.2306,-0.2391,-0.2497,-0.2503,-0.2524,-0.2503,-0.2447,-0.2469,-0.235,-0.2336,-0.2296,-0.2191,-0.2171,-0.2066,-0.2052,-0.1913,-0.1902,-0.1792,-0.173,-0.1639,-0.1684,-0.1539,-0.1501,-0.1696,-0.1694,-0.1691,0,-0.2222,-0.2277,-0.2366,-0.2343,-0.2386,-0.2401,-0.2344,-0.2385,-0.2304,-0.2232,-0.2129,-0.2036,-0.1933,-0.1779,-0.1754,-0.1665,-0.1733,-0.1531,-0.1631,-0.1614,-0.1619,-0.1665,-0.165,-0.1423,-0.1419,-0.1415,-0.1413,0,-0.2195,-0.2222,-0.2258,-0.222,-0.2183,-0.2142,-0.2093,-0.2032,-0.2025,-0.1953,-0.183,-0.1766,-0.1625,-0.151,-0.1439,-0.1403,-0.151,-0.1457,-0.147,-0.1436,-0.1446,-0.1387,-0.1574,-0.1382,-0.1385,-0.1387,-0.1389,-0.139,-0.2098,-0.2084,-0.2077,-0.2021,-0.1964,-0.186,-0.1795,-0.1742,-0.1643,-0.1529,-0.1546,-0.1432,-0.136,-0.1251,-0.1215,-0.1146,-0.1233,-0.1139,-0.1188,-0.1231,-0.1245,-0.1352,-0.1108,-0.111,-0.1111,-0.1112,-0.1113,0,-0.1916,-0.1885,-0.1841,-0.1762,-0.1634,-0.1673,-0.1559,-0.1474,-0.1354,-0.1304,-0.1229,-0.1119,-0.1021,-0.1008,-0.0943,-0.0902,-0.0917,-0.091,-0.0957,-0.0952,-0.1034,-0.1078,-0.0781,-0.0781,-0.0781,-0.0781,-0.0781,-0.0781,-0.18,-0.1674,-0.1658,-0.1423,-0.1372,-0.1191,-0.1123,-0.1054,-0.1002,-0.0876,-0.0819,-0.0764,-0.08,-0.0884,-0.0845,-0.0812,-0.0838,-0.0788,-0.0858,-0.0939,-0.0966,-0.0991,-0.1042,-0.0743,-0.0743,-0.072,-0.072,-0.072]},{"header":{"parameterUnit":"m.s-1","parameterCategory":2,"la1":30.2991,"la2":30.254,"lo1":-89.0895,"lo2":-89.0444,"dx":0.0017,"dy":0.0017,"nx":28,"ny":28,"refTime":"2022-11-07T03:00:00:Z","depth":"0","parameterNumber":3,"parameterNumberName":"V-component_of_CURRENTS"},"data":[0,0,0,0,0,0,0,0,0,0,0,0,0,0,0,0,0,0,0,0,0,0,0,0,0,0,0,0,0,0,0,0,0,0,0,0,0,0,0,0,0,0,0,0,0,0,0,0,0,0,0,0,0,0,0,0,0,0,-0.0598,-0.0597,0,-0.0414,-0.0411,-0.0409,-0.03,-0.03,-0.03,-0.03,-0.0065,-0.0059,-0.0052,0,0,0,0,0,0,0,0,0,0,0,0,0,-0.0673,-0.0673,-0.0598,-0.0597,-0.0595,-0.0414,-0.0411,-0.0408,-0.03,-0.03,-0.03,-0.03,-0.0067,-0.0059,-0.0052,0,0,0,0,0,0,0,0,0,0,0,0,0,-0.0575,-0.0673,-0.0599,-0.0524,-0.0515,-0.0415,-0.0411,-0.0407,-0.03,-0.03,-0.03,-0.0301,-0.0069,-0.006,-0.0051,0.0011,0,0,-0.0022,-0.0017,0,0,0,0,0,0,0,0,-0.0581,-0.0572,-0.0536,-0.0529,-0.0519,-0.0385,-0.0351,-0.0267,-0.03,-0.0376,-0.03,-0.0301,-0.0171,-0.0153,-0.011,0.0022,0.0032,-0.0021,-0.0015,-0.0011,-0.0008,0,0,0,0,0,0,0,-0.0588,-0.0578,-0.0519,-0.0535,-0.0524,-0.0437,-0.0424,-0.0334,-0.0269,-0.0369,-0.0362,-0.0351,-0.0165,-0.012,-0.0104,0.0035,-0.0021,-0.0013,-0.0007,-0.0003,0.0214,0.0214,0,0,0,0,0,0,-0.0632,-0.0586,-0.0525,-0.0514,-0.0558,-0.0436,-0.0422,-0.0423,-0.0271,-0.025,-0.0351,-0.0347,-0.0136,-0.0115,-0.0095,-0.0038,-0.0011,-0.0002,0.0004,0.0214,0.0214,0.0214,0,0,0,0,0,0,-0.0635,-0.0629,-0.0533,-0.0549,-0.0532,-0.0437,-0.0438,-0.042,-0.0372,-0.0259,-0.0236,-0.0324,-0.0135,-0.0109,-0.0022,-0.0027,0.0002,0.0011,0.0214,0.0214,0.0214,0.0093,0,0,0,0,0,0,-0.0638,-0.0632,-0.0638,-0.0553,-0.0533,-0.0482,-0.0438,-0.0416,-0.0368,-0.036,-0.0228,-0.0206,-0.0133,-0.0037,-0.0013,-0.0014,0.0018,0.0214,0.0214,0.0214,0.0097,0.0089,0.0082,0,0,0,0,0,-0.0642,-0.065,-0.064,-0.0632,-0.0549,-0.0482,-0.0462,-0.039,-0.0367,-0.0347,-0.0264,-0.021,-0.002,-0.0029,-0.0,0.0001,0.0214,0.0214,0.0214,0.01,0.009,0.0082,0,0,0,0,0,0,-0.0683,-0.0638,-0.0625,-0.062,-0.0564,-0.0467,-0.0435,-0.0394,-0.031,-0.0297,-0.0198,-0.017,-0.0097,-0.0029,-0.0042,0.0063,0.0102,0.0108,0.0006,-0.0002,-0.001,-0.0057,0.0026,0,0,0,0,0,-0.0702,-0.0697,-0.0638,-0.0633,-0.0608,-0.0524,-0.0486,-0.044,-0.0361,-0.0323,-0.0237,-0.0147,-0.0073,-0.0026,0.0058,0.0124,0.0175,0.0141,0.0133,0.0126,0.0107,0.0167,0.0162,0.0214,0.0214,0.0214,0,0,-0.0717,-0.0691,-0.0688,-0.0641,-0.0585,-0.0554,-0.0499,-0.0444,-0.042,-0.031,-0.0241,-0.0163,-0.006,0.0006,0.0044,0.0062,0.0143,0.0126,0.0119,0.0104,0.0166,0.0161,0.0156,0.0214,0.0214,0.0214,0,0,-0.0735,-0.0722,-0.0717,-0.0679,-0.0615,-0.0568,-0.0562,-0.047,-0.043,-0.036,-0.0286,-0.022,-0.0087,-0.003,0.0017,0.0021,0.0101,0.0053,-0.002,0.0038,0.0033,0.003,0.0098,0.0102,0.0048,0.0048,0.0048,0,-0.0753,-0.0754,-0.0701,-0.0683,-0.0666,-0.0586,-0.0577,-0.0519,-0.0414,-0.0394,-0.0356,-0.0196,-0.0111,-0.0052,-0.0058,0.0002,0.0051,0.0002,0.0025,0.0023,0.0021,0.0092,0.0098,0.0042,0.0043,0.0043,0.0044,0,-0.076,-0.0765,-0.0755,-0.0722,-0.0689,-0.0668,-0.0603,-0.0566,-0.0516,-0.0462,-0.039,-0.0278,-0.0198,-0.0157,-0.0105,-0.0076,-0.0031,0.0006,0.0037,0.0008,0.0086,0.0094,0.0034,0.0036,0.0037,0.0039,0,0,-0.0799,-0.0773,-0.0771,-0.0779,-0.0719,-0.0695,-0.0667,-0.0626,-0.061,-0.0518,-0.049,-0.0385,-0.0337,-0.0283,-0.0204,-0.0156,-0.012,-0.0095,-0.0089,-0.0047,0.0015,0.0049,0.0062,-0.0081,-0.0081,-0.0081,0.0077,0,-0.0826,-0.0836,-0.0807,-0.0818,-0.0821,-0.0767,-0.0746,-0.0696,-0.0639,-0.0584,-0.0496,-0.0425,-0.0379,-0.0338,-0.0293,-0.0141,-0.0106,-0.0165,0.0054,0.006,0.0078,0.0069,0.0094,0.0236,0.0085,0.0086,0.0087,0,-0.0846,-0.0857,-0.0887,-0.089,-0.0884,-0.0876,-0.0851,-0.082,-0.0737,-0.0689,-0.063,-0.054,-0.0454,-0.0408,-0.0226,-0.0264,-0.0161,-0.0054,-0.0044,0.0029,0.0107,0.0242,0.0257,0.0357,0.01,0.0099,0.0098,0,-0.091,-0.0916,-0.0958,-0.0957,-0.0935,-0.0945,-0.0926,-0.086,-0.0816,-0.0758,-0.0697,-0.0608,-0.0506,-0.0396,-0.0199,-0.021,0.0019,0.0044,0.0165,0.017,0.0254,0.0266,0.0372,0.0132,0.0132,0.0131,0.0131,0,-0.0968,-0.0995,-0.0997,-0.102,-0.1049,-0.1011,-0.1012,-0.098,-0.0894,-0.0826,-0.076,-0.0667,-0.0498,-0.0339,-0.021,0.0011,0.0008,0.0145,0.0206,0.0216,0.0221,0.0364,0.0394,0.0137,0.0136,0.0135,0.0134,0,-0.103,-0.1036,-0.1079,-0.1086,-0.1082,-0.1104,-0.1047,-0.1014,-0.0953,-0.0856,-0.0831,-0.0668,-0.0474,-0.0298,-0.0063,0.0037,0.0288,0.0284,0.0286,0.0341,0.0522,0.0544,0.0699,0.0762,0.044,0.0441,0.0443,0,-0.1064,-0.1098,-0.1126,-0.1128,-0.1135,-0.1143,-0.1109,-0.1054,-0.0991,-0.0841,-0.077,-0.0584,-0.0424,-0.0084,0.0108,0.0332,0.0392,0.0475,0.0439,0.0526,0.0597,0.0598,0.0638,0.0523,0.0525,0.0526,0.0527,0,-0.112,-0.1132,-0.1157,-0.116,-0.1151,-0.1137,-0.1088,-0.105,-0.095,-0.0856,-0.0685,-0.0556,-0.0241,0.0031,0.0296,0.0416,0.0536,0.0513,0.0613,0.0663,0.0665,0.0757,0.0432,0.0541,0.054,0.0539,0.0538,0.0538,-0.1137,-0.1155,-0.1161,-0.1162,-0.1143,-0.1096,-0.1073,-0.0991,-0.0897,-0.0703,-0.0611,-0.0318,-0.0031,0.035,0.048,0.0733,0.0681,0.0799,0.0822,0.0817,0.0853,0.0547,0.071,0.071,0.071,0.0709,0.0709,0,-0.112,-0.1122,-0.1132,-0.1122,-0.1087,-0.1081,-0.1006,-0.0943,-0.0827,-0.0587,-0.0413,0.008,0.0353,0.0635,0.0926,0.1042,0.105,0.1086,0.1098,0.1128,0.0886,0.0862,0.1053,0.1053,0.1053,0.1053,0.1053,0.1053,-0.11,-0.1088,-0.1088,-0.104,-0.1031,-0.0962,-0.0919,-0.0817,-0.0631,-0.0231,0.0165,0.0454,0.0801,0.1068,0.1301,0.1312,0.1408,0.1374,0.1433,0.1265,0.124,0.1215,0.1201,0.146,0.1461,0.1668,0.167,0.1671]}],[{"header":{"parameterUnit":"m.s-1","parameterCategory":2,"la1":30.2991,"la2":30.254,"lo1":-89.0895,"lo2":-89.0444,"dx":0.0017,"dy":0.0017,"nx":28,"ny":28,"refTime":"2022-11-07T03:00:00:Z","depth":"2","parameterNumber":2,"parameterNumberName":"U-component_of_CURRENTS"},"data":[0,0,0,0,0,0,0,0,0,0,0,0,0,0,0,0,0,0,0,0,0,0,0,0,0,0,0,0,0,0,0,0,0,0,0,0,0,0,0,0,0,0,0,0,0,0,0,0,0,0,0,0,0,0,0,0,0,0,-0.1838,-0.1838,0,-0.176,-0.1759,-0.1758,-0.1721,-0.1722,-0.1722,-0.1722,-0.1722,-0.1722,-0.1721,0,0,0,0,0,0,0,0,0,0,0,0,0,-0.1868,-0.1868,-0.1839,-0.1838,-0.1837,-0.1761,-0.1759,-0.1758,-0.1721,-0.1722,-0.1722,-0.1722,-0.1722,-0.1722,-0.1721,0,0,0,0,0,0,0,0,0,0,0,0,0,-0.1827,-0.1868,-0.1839,-0.1812,-0.1809,-0.1761,-0.1759,-0.1758,-0.1721,-0.1722,-0.1722,-0.1723,-0.1722,-0.1722,-0.1721,-0.1708,0,0,-0.172,-0.1719,0,0,0,0,0,0,0,0,-0.1829,-0.1825,-0.1817,-0.1814,-0.181,-0.1754,-0.177,-0.1746,-0.1721,-0.1751,-0.1722,-0.1723,-0.1742,-0.1739,-0.1718,-0.1708,-0.1708,-0.172,-0.1719,-0.1719,-0.1719,0,0,0,0,0,0,0,-0.1832,-0.1828,-0.1804,-0.1816,-0.1812,-0.1774,-0.1769,-0.1764,-0.1743,-0.1749,-0.1746,-0.1743,-0.174,-0.1718,-0.1718,-0.1708,-0.172,-0.1719,-0.1719,-0.1719,-0.1764,-0.1765,0,0,0,0,0,0,-0.1852,-0.1831,-0.1807,-0.1802,-0.1825,-0.1774,-0.1768,-0.1769,-0.1742,-0.1738,-0.1742,-0.1741,-0.1719,-0.1719,-0.1718,-0.1756,-0.1719,-0.1719,-0.1718,-0.1762,-0.1764,-0.1766,0,0,0,0,0,0,-0.1853,-0.1851,-0.181,-0.1817,-0.181,-0.1774,-0.1774,-0.1767,-0.1756,-0.1737,-0.1734,-0.174,-0.1719,-0.1719,-0.1729,-0.1754,-0.1718,-0.1718,-0.1761,-0.1763,-0.1765,-0.1798,0,0,0,0,0,0,-0.1854,-0.1852,-0.1855,-0.1819,-0.181,-0.1795,-0.1774,-0.1765,-0.1754,-0.1752,-0.1734,-0.1733,-0.172,-0.173,-0.1728,-0.1753,-0.1718,-0.1759,-0.1762,-0.1764,-0.1795,-0.1802,-0.1807,0,0,0,0,0,-0.1856,-0.1893,-0.1856,-0.1853,-0.1818,-0.1795,-0.1787,-0.176,-0.1754,-0.1751,-0.1744,-0.1735,-0.1747,-0.173,-0.1728,-0.1753,-0.1757,-0.1761,-0.1764,-0.1793,-0.18,-0.1807,0,0,0,0,0,0,-0.1933,-0.1891,-0.1851,-0.1877,-0.1832,-0.1791,-0.1806,-0.1768,-0.1755,-0.1768,-0.1741,-0.174,-0.1762,-0.1755,-0.1737,-0.1778,-0.1756,-0.1759,-0.1779,-0.1785,-0.1791,-0.181,-0.1717,0,0,0,0,0,-0.1941,-0.1949,-0.1888,-0.191,-0.1896,-0.1842,-0.183,-0.1802,-0.1787,-0.178,-0.1771,-0.1772,-0.1771,-0.1776,-0.1778,-0.1792,-0.1765,-0.1813,-0.1819,-0.1824,-0.1841,-0.1816,-0.182,-0.1777,-0.1777,-0.1777,0,0,-0.1979,-0.1958,-0.1963,-0.1923,-0.1898,-0.1865,-0.1838,-0.1836,-0.1818,-0.1786,-0.1795,-0.179,-0.178,-0.1798,-0.1809,-0.1797,-0.1818,-0.1828,-0.1832,-0.1846,-0.182,-0.1824,-0.1827,-0.1779,-0.1779,-0.1778,0,0,-0.2025,-0.2039,-0.2021,-0.199,-0.1943,-0.1918,-0.1917,-0.1874,-0.1873,-0.1868,-0.1845,-0.1854,-0.186,-0.1847,-0.1843,-0.1883,-0.1848,-0.1895,-0.1937,-0.1913,-0.1916,-0.1918,-0.1863,-0.186,-0.1899,-0.1899,-0.1899,0,-0.2055,-0.2026,-0.2018,-0.1979,-0.1976,-0.1942,-0.1918,-0.1905,-0.1871,-0.1885,-0.1891,-0.189,-0.1884,-0.1881,-0.1905,-0.1894,-0.1868,-0.1906,-0.1918,-0.192,-0.1921,-0.1865,-0.1861,-0.1901,-0.19,-0.19,-0.19,0,-0.2013,-0.2023,-0.2038,-0.1971,-0.1973,-0.1972,-0.1947,-0.1934,-0.1949,-0.1947,-0.1973,-0.1958,-0.1954,-0.1961,-0.1951,-0.1961,-0.1932,-0.1922,-0.1894,-0.1927,-0.1866,-0.1861,-0.1904,-0.1903,-0.1902,-0.1902,0,0,-0.1988,-0.1999,-0.1998,-0.1985,-0.1978,-0.1967,-0.1975,-0.1966,-0.1963,-0.1983,-0.199,-0.2018,-0.2025,-0.2022,-0.1998,-0.1997,-0.1979,-0.1981,-0.1978,-0.1915,-0.1906,-0.1838,-0.1826,-0.1971,-0.1972,-0.1972,-0.1847,0,-0.194,-0.1908,-0.1931,-0.193,-0.1921,-0.1935,-0.1942,-0.1948,-0.1981,-0.1984,-0.2011,-0.2023,-0.2043,-0.2031,-0.2039,-0.199,-0.1975,-0.2012,-0.1895,-0.1891,-0.1817,-0.1822,-0.1695,-0.1571,-0.1843,-0.1842,-0.1841,0,-0.1849,-0.185,-0.1853,-0.191,-0.1908,-0.1903,-0.1923,-0.1922,-0.1949,-0.1978,-0.2013,-0.2036,-0.2037,-0.2044,-0.2,-0.2024,-0.1982,-0.1951,-0.1944,-0.1873,-0.1816,-0.1589,-0.1552,-0.1833,-0.1834,-0.1835,-0.1835,0,-0.1793,-0.181,-0.1834,-0.1838,-0.1868,-0.1875,-0.1886,-0.1923,-0.1942,-0.1966,-0.1983,-0.2011,-0.1989,-0.1977,-0.1945,-0.1968,-0.1882,-0.1884,-0.1777,-0.1769,-0.1635,-0.1616,-0.1851,-0.1852,-0.1852,-0.1852,-0.1853,0,-0.1745,-0.1753,-0.1802,-0.1791,-0.1801,-0.1845,-0.1859,-0.1862,-0.1896,-0.1911,-0.1975,-0.1957,-0.198,-0.1947,-0.1926,-0.183,-0.1854,-0.1784,-0.174,-0.1641,-0.1625,-0.1844,-0.1845,-0.1848,-0.1849,-0.185,-0.185,0,-0.1697,-0.1732,-0.1739,-0.1769,-0.1779,-0.1781,-0.1828,-0.182,-0.1864,-0.1863,-0.1871,-0.1905,-0.1849,-0.1851,-0.1789,-0.1769,-0.1701,-0.1656,-0.1529,-0.1475,-0.1606,-0.1611,-0.1522,-0.1519,-0.1516,-0.1513,-0.1512,0,-0.1674,-0.167,-0.1704,-0.1704,-0.1723,-0.1734,-0.1729,-0.1783,-0.1787,-0.181,-0.179,-0.1771,-0.1714,-0.1613,-0.1564,-0.1482,-0.1577,-0.1339,-0.1376,-0.161,-0.1576,-0.1585,-0.1593,-0.119,-0.1186,-0.1182,-0.1179,0,-0.1608,-0.1628,-0.1628,-0.1621,-0.1628,-0.1631,-0.1636,-0.164,-0.1676,-0.1675,-0.1633,-0.1595,-0.1502,-0.136,-0.1285,-0.1241,-0.1354,-0.1263,-0.1516,-0.1312,-0.1292,-0.1261,-0.1281,-0.1147,-0.115,-0.1153,-0.1154,-0.1156,-0.1547,-0.1537,-0.1529,-0.152,-0.1522,-0.1497,-0.1459,-0.1472,-0.1449,-0.141,-0.1433,-0.1321,-0.1295,-0.11,-0.1028,-0.0996,-0.11,-0.1078,-0.1091,-0.1107,-0.111,-0.1089,-0.0903,-0.0905,-0.0906,-0.0907,-0.0909,0,-0.1443,-0.1432,-0.1418,-0.1391,-0.1341,-0.1381,-0.1357,-0.1298,-0.1225,-0.1205,-0.1143,-0.0985,-0.0868,-0.0859,-0.0738,-0.0722,-0.074,-0.0714,-0.0737,-0.0768,-0.0796,-0.0786,-0.0491,-0.049,-0.0489,-0.0488,0,0,-0.138,-0.1323,-0.1314,-0.1199,-0.118,-0.1074,-0.1037,-0.0984,-0.094,-0.0845,-0.0784,-0.0804,-0.0808,-0.0644,-0.0606,-0.052,-0.0643,-0.0497,-0.0828,-0.0883,-0.091,-0.0996,-0.1013,0,0,0,0,0]},{"header":{"parameterUnit":"m.s-1","parameterCategory":2,"la1":30.2991,"la2":30.254,"lo1":-89.0895,"lo2":-89.0444,"dx":0.0017,"dy":0.0017,"nx":28,"ny":28,"refTime":"2022-11-07T03:00:00:Z","depth":"2","parameterNumber":3,"parameterNumberName":"V-component_of_CURRENTS"},"data":[0,0,0,0,0,0,0,0,0,0,0,0,0,0,0,0,0,0,0,0,0,0,0,0,0,0,0,0,0,0,0,0,0,0,0,0,0,0,0,0,0,0,0,0,0,0,0,0,0,0,0,0,0,0,0,0,0,0,-0.0233,-0.0233,0,-0.0178,-0.0177,-0.0176,-0.0122,-0.0121,-0.0121,-0.0121,0.0013,0.0016,0.0019,0,0,0,0,0,0,0,0,0,0,0,0,0,-0.0257,-0.0257,-0.0233,-0.0233,-0.0233,-0.0178,-0.0177,-0.0175,-0.0122,-0.0121,-0.0121,-0.012,0.0012,0.0016,0.002,0,0,0,0,0,0,0,0,0,0,0,0,0,-0.0225,-0.0257,-0.0233,-0.0202,-0.0199,-0.0178,-0.0177,-0.0175,-0.0122,-0.0121,-0.0121,-0.012,0.0011,0.0015,0.002,0.004,0,0,0.0035,0.0037,0,0,0,0,0,0,0,0,-0.0227,-0.0224,-0.0207,-0.0204,-0.0201,-0.016,-0.0136,-0.0101,-0.0122,-0.0147,-0.0121,-0.012,-0.004,-0.0031,-0.0017,0.0047,0.0052,0.0036,0.0038,0.0041,0.0042,0,0,0,0,0,0,0,-0.0229,-0.0226,-0.0207,-0.0207,-0.0203,-0.0179,-0.0174,-0.0129,-0.0093,-0.0145,-0.0142,-0.0142,-0.0038,-0.0022,-0.0014,0.0054,0.0035,0.004,0.0043,0.0045,0.0163,0.0164,0,0,0,0,0,0,-0.0247,-0.0228,-0.0209,-0.0206,-0.0217,-0.0179,-0.0173,-0.017,-0.0095,-0.0084,-0.0142,-0.014,-0.0031,-0.0019,-0.0009,0.0027,0.0041,0.0045,0.0048,0.0163,0.0163,0.0164,0,0,0,0,0,0,-0.0247,-0.0245,-0.0211,-0.0219,-0.0213,-0.018,-0.0176,-0.0169,-0.0155,-0.0095,-0.0082,-0.0136,-0.003,-0.0016,0.0027,0.0032,0.0047,0.0052,0.0163,0.0163,0.0164,0.0093,0,0,0,0,0,0,-0.0248,-0.0246,-0.0251,-0.022,-0.0214,-0.0204,-0.0177,-0.0169,-0.0158,-0.0154,-0.0085,-0.0072,-0.0028,0.0019,0.0032,0.0039,0.0056,0.0163,0.0163,0.0164,0.0095,0.0091,0.0087,0,0,0,0,0,-0.0249,-0.0266,-0.0251,-0.0249,-0.0221,-0.0205,-0.0199,-0.017,-0.0158,-0.0155,-0.011,-0.0074,0.0032,0.0023,0.0038,0.0047,0.0162,0.0163,0.0163,0.0097,0.0092,0.0088,0,0,0,0,0,0,-0.0283,-0.0262,-0.0245,-0.0255,-0.0232,-0.0197,-0.0202,-0.0177,-0.014,-0.0137,-0.0074,-0.0058,-0.0018,0.0023,0.0012,0.0083,0.0104,0.0108,0.0049,0.0045,0.0041,0.0029,0.006,0,0,0,0,0,-0.0293,-0.0301,-0.0267,-0.0279,-0.0271,-0.0235,-0.0227,-0.0204,-0.017,-0.0153,-0.0106,-0.0053,-0.0005,0.0025,0.0071,0.0108,0.0143,0.0125,0.0121,0.0117,0.0118,0.0162,0.0162,0.0165,0.0165,0.0165,0,0,-0.0314,-0.0303,-0.0308,-0.0287,-0.027,-0.0259,-0.0228,-0.0222,-0.0205,-0.0144,-0.0112,-0.0068,0.0001,0.0041,0.0063,0.0077,0.0135,0.0118,0.0114,0.0118,0.0163,0.0163,0.0162,0.0166,0.0166,0.0166,0,0,-0.0355,-0.0346,-0.0358,-0.0339,-0.0318,-0.0292,-0.0292,-0.0254,-0.0229,-0.0195,-0.0146,-0.0103,-0.0031,0.0019,0.0055,0.0059,0.0109,0.0076,0.0054,0.0096,0.0095,0.0096,0.0135,0.0139,0.0079,0.0079,0.0079,0,-0.038,-0.0384,-0.036,-0.0359,-0.0352,-0.0309,-0.031,-0.0277,-0.0228,-0.0206,-0.0194,-0.009,-0.0039,0.0023,0.0024,0.0051,0.008,0.0062,0.0089,0.009,0.0092,0.0132,0.0138,0.0076,0.0076,0.0077,0.0077,0,-0.0407,-0.0416,-0.0427,-0.0407,-0.0393,-0.0395,-0.0346,-0.0319,-0.0288,-0.0253,-0.0196,-0.013,-0.0067,-0.0043,-0.0007,0.0035,0.0054,0.0071,0.0094,0.0087,0.013,0.0137,0.0071,0.0072,0.0073,0.0074,0,0,-0.0447,-0.0447,-0.0451,-0.0452,-0.0419,-0.0411,-0.0381,-0.0339,-0.0317,-0.0264,-0.0232,-0.0153,-0.0123,-0.008,-0.0027,0.0013,0.0044,0.004,0.0044,0.0068,0.0134,0.0156,0.0166,0.0061,0.0062,0.0063,0.0158,0,-0.0475,-0.0499,-0.0481,-0.0495,-0.0501,-0.045,-0.0424,-0.0378,-0.0336,-0.0294,-0.0219,-0.0177,-0.0133,-0.011,-0.0062,0.002,0.006,0.0017,0.0149,0.0153,0.0164,0.0175,0.0154,0.0237,0.0165,0.0166,0.0167,0,-0.0505,-0.0511,-0.0543,-0.0535,-0.053,-0.0524,-0.0477,-0.0448,-0.0374,-0.0338,-0.0282,-0.0231,-0.0154,-0.0129,0.0007,-0.0025,0.0046,0.0106,0.0111,0.0163,0.0188,0.0237,0.0253,0.018,0.0179,0.0178,0.0177,0,-0.0549,-0.056,-0.0592,-0.0589,-0.0563,-0.0554,-0.053,-0.0468,-0.0443,-0.0376,-0.0356,-0.026,-0.0207,-0.0111,0.0016,0.0008,0.0161,0.0168,0.0258,0.026,0.0285,0.0288,0.0254,0.0254,0.0254,0.0254,0.0253,0,-0.0596,-0.0616,-0.0619,-0.0628,-0.0642,-0.0603,-0.0598,-0.0553,-0.0498,-0.0467,-0.0393,-0.0341,-0.0202,-0.0098,0.0007,0.0162,0.0159,0.0259,0.0289,0.026,0.026,0.0246,0.0244,0.0257,0.0256,0.0256,0.0255,0,-0.0655,-0.0662,-0.069,-0.0675,-0.0673,-0.0684,-0.0654,-0.0636,-0.0581,-0.0538,-0.0523,-0.0397,-0.025,-0.0108,0.0068,0.0157,0.0293,0.0345,0.0302,0.0325,0.0363,0.0356,0.045,0.0451,0.0453,0.0454,0.0455,0,-0.0693,-0.0718,-0.0735,-0.0751,-0.0752,-0.0754,-0.0743,-0.0688,-0.0663,-0.0559,-0.0535,-0.0398,-0.0265,-0.0005,0.0164,0.0352,0.0349,0.0431,0.0413,0.0365,0.0385,0.0376,0.0367,0.042,0.042,0.0421,0.0421,0,-0.0743,-0.0759,-0.0776,-0.0808,-0.0821,-0.0823,-0.0801,-0.0794,-0.0707,-0.0648,-0.0524,-0.0416,-0.0167,0.0053,0.0278,0.0376,0.0396,0.0447,0.0425,0.0367,0.0343,0.036,0.0352,0.0426,0.0425,0.0425,0.0425,0.0424,-0.0777,-0.0807,-0.0829,-0.0857,-0.0869,-0.0863,-0.085,-0.0798,-0.0739,-0.0605,-0.0506,-0.0303,-0.0123,0.0221,0.0355,0.0465,0.0469,0.0499,0.0495,0.0491,0.0464,0.0444,0.054,0.054,0.054,0.054,0.054,0,-0.0804,-0.0828,-0.0862,-0.0886,-0.0891,-0.0887,-0.0856,-0.0805,-0.071,-0.0568,-0.0411,-0.0178,0.0058,0.0229,0.0419,0.0531,0.0501,0.0532,0.0479,0.0475,0.0471,0.044,0.0511,0.0512,0.0512,0.0512,0,0,-0.0816,-0.0852,-0.0864,-0.0881,-0.0892,-0.0869,-0.0842,-0.0752,-0.0637,-0.0467,-0.0308,-0.0106,0.0096,0.0227,0.0354,0.0443,0.0421,0.0436,0.045,0.0367,0.0362,0.0446,0.0395,0,0,0,0,0]}],[{"header":{"parameterUnit":"m.s-1","parameterCategory":2,"la1":30.2991,"la2":30.254,"lo1":-89.0895,"lo2":-89.0444,"dx":0.0017,"dy":0.0017,"nx":28,"ny":28,"refTime":"2022-11-07T03:00:00:Z","depth":"4","parameterNumber":2,"parameterNumberName":"U-component_of_CURRENTS"},"data":[0,0,0,0,0,0,0,0,0,0,0,0,0,0,0,0,0,0,0,0,0,0,0,0,0,0,0,0,0,0,0,0,0,0,0,0,0,0,0,0,0,0,0,0,0,0,0,0,0,0,0,0,0,0,0,0,0,0,-0.0937,-0.0938,0,-0.0985,-0.0985,-0.0986,-0.0999,-0.0999,-0.0999,-0.0999,-0.1036,-0.1037,-0.1038,0,0,0,0,0,0,0,0,0,0,0,0,0,-0.0879,-0.0879,-0.0937,-0.0938,-0.0938,-0.0985,-0.0985,-0.0986,-0.0999,-0.0999,-0.0999,-0.0999,-0.1036,-0.1037,-0.1039,0,0,0,0,0,0,0,0,0,0,0,0,0,-0.0911,-0.0879,-0.0937,-0.0952,-0.0954,-0.0985,-0.0985,-0.0986,-0.0999,-0.0999,-0.0999,-0.0999,-0.1036,-0.1037,-0.1039,-0.1052,0,0,-0.1044,-0.1044,0,0,0,0,0,0,0,0,-0.0909,-0.0913,-0.0949,-0.0951,-0.0953,-0.0988,-0.0979,-0.1008,-0.0999,-0.098,-0.0999,-0.0998,-0.1021,-0.1023,-0.103,-0.1053,-0.1055,-0.1044,-0.1045,-0.1046,-0.1046,0,0,0,0,0,0,0,-0.0907,-0.0911,-0.0954,-0.095,-0.0953,-0.0964,-0.0968,-0.0984,-0.0999,-0.0981,-0.0983,-0.0992,-0.1021,-0.1028,-0.1031,-0.1056,-0.1044,-0.1045,-0.1046,-0.1047,-0.1107,-0.1108,0,0,0,0,0,0,-0.0904,-0.0909,-0.0952,-0.0955,-0.0933,-0.0966,-0.097,-0.0975,-0.0999,-0.1003,-0.0992,-0.0992,-0.1026,-0.1029,-0.1032,-0.1084,-0.1046,-0.1047,-0.1048,-0.1107,-0.1108,-0.1108,0,0,0,0,0,0,-0.0903,-0.0907,-0.095,-0.0935,-0.0942,-0.0967,-0.0972,-0.0976,-0.0999,-0.1007,-0.101,-0.1013,-0.1026,-0.103,-0.1055,-0.1084,-0.1048,-0.1049,-0.1106,-0.1107,-0.1108,-0.1166,0,0,0,0,0,0,-0.0901,-0.0906,-0.0915,-0.0935,-0.0942,-0.0976,-0.0973,-0.0977,-0.1005,-0.1006,-0.1026,-0.1028,-0.1026,-0.1053,-0.1057,-0.1086,-0.1051,-0.1105,-0.1107,-0.1108,-0.1163,-0.1168,-0.1173,0,0,0,0,0,-0.0898,-0.0905,-0.0914,-0.092,-0.0951,-0.0977,-0.0982,-0.0998,-0.1006,-0.1018,-0.103,-0.1029,-0.1063,-0.1055,-0.106,-0.109,-0.1105,-0.1106,-0.1108,-0.1161,-0.1167,-0.1173,0,0,0,0,0,0,-0.0884,-0.0908,-0.0918,-0.0932,-0.0958,-0.098,-0.0992,-0.101,-0.103,-0.1034,-0.104,-0.1044,-0.1076,-0.1072,-0.1063,-0.1108,-0.1083,-0.1085,-0.1121,-0.1128,-0.1133,-0.1137,-0.1052,0,0,0,0,0,-0.0886,-0.0899,-0.0924,-0.094,-0.095,-0.0977,-0.0992,-0.1008,-0.1027,-0.1037,-0.1052,-0.1065,-0.1084,-0.1096,-0.1106,-0.1136,-0.113,-0.1155,-0.116,-0.1164,-0.1169,-0.1195,-0.1203,-0.1113,-0.1113,-0.1113,0,0,-0.0887,-0.0903,-0.0911,-0.0939,-0.0957,-0.0982,-0.0985,-0.1013,-0.104,-0.1038,-0.1074,-0.1086,-0.1094,-0.1124,-0.1138,-0.1127,-0.1183,-0.1166,-0.117,-0.1173,-0.1197,-0.1206,-0.1214,-0.1114,-0.1114,-0.1114,0,0,-0.0894,-0.0907,-0.092,-0.0941,-0.0974,-0.0994,-0.1008,-0.1039,-0.1055,-0.1092,-0.1097,-0.1127,-0.1153,-0.1168,-0.1178,-0.1217,-0.1208,-0.122,-0.1255,-0.1281,-0.1289,-0.1296,-0.1285,-0.1291,-0.1224,-0.1224,-0.1225,0,-0.0899,-0.0921,-0.093,-0.095,-0.0975,-0.1003,-0.1032,-0.1051,-0.1091,-0.1114,-0.1108,-0.1169,-0.1174,-0.1224,-0.1233,-0.1232,-0.1231,-0.1235,-0.1289,-0.1296,-0.1302,-0.129,-0.1295,-0.1227,-0.1227,-0.1227,-0.1227,0,-0.0912,-0.0939,-0.0949,-0.0986,-0.101,-0.1042,-0.107,-0.11,-0.1129,-0.1157,-0.121,-0.1222,-0.126,-0.1268,-0.1264,-0.1317,-0.1296,-0.1293,-0.1277,-0.1315,-0.1299,-0.1303,-0.1232,-0.1231,-0.123,-0.1229,0,0,-0.0906,-0.0953,-0.0958,-0.0987,-0.1036,-0.1058,-0.1102,-0.1156,-0.1201,-0.123,-0.129,-0.1317,-0.1333,-0.1345,-0.1351,-0.1372,-0.1408,-0.1354,-0.1354,-0.1349,-0.1443,-0.1315,-0.1308,-0.1422,-0.1423,-0.1424,-0.1408,0,-0.0925,-0.0965,-0.0989,-0.1046,-0.1072,-0.1113,-0.1159,-0.1208,-0.125,-0.1309,-0.1333,-0.1386,-0.1359,-0.1391,-0.1409,-0.1414,-0.1425,-0.141,-0.1402,-0.1401,-0.1288,-0.1311,-0.1429,-0.1412,-0.1413,-0.1414,-0.1414,0,-0.0932,-0.0964,-0.1012,-0.1088,-0.1105,-0.1148,-0.1232,-0.1275,-0.1353,-0.1386,-0.1436,-0.1459,-0.1498,-0.1473,-0.149,-0.1484,-0.1467,-0.146,-0.1459,-0.1325,-0.1282,-0.1368,-0.1422,-0.1422,-0.1421,-0.142,-0.142,0,-0.0915,-0.0983,-0.1026,-0.1048,-0.1132,-0.1173,-0.1226,-0.1304,-0.1356,-0.1438,-0.1483,-0.153,-0.1553,-0.1556,-0.1514,-0.152,-0.1516,-0.1524,-0.1389,-0.1378,-0.1474,-0.1467,-0.1539,-0.1539,-0.1539,-0.1539,-0.1539,0,-0.0917,-0.0955,-0.1026,-0.1049,-0.1122,-0.1176,-0.1267,-0.1318,-0.1414,-0.1465,-0.1521,-0.1545,-0.1578,-0.1571,-0.1541,-0.1453,-0.153,-0.1392,-0.1371,-0.1495,-0.149,-0.1476,-0.1469,-0.1538,-0.1538,-0.1539,-0.1539,0,-0.0882,-0.0929,-0.0987,-0.108,-0.1114,-0.116,-0.1284,-0.1344,-0.1429,-0.1494,-0.1522,-0.1573,-0.1539,-0.1536,-0.1524,-0.1462,-0.1413,-0.1362,-0.1467,-0.1453,-0.1257,-0.1253,-0.1235,-0.123,-0.1227,-0.1223,-0.1221,0,-0.0869,-0.0893,-0.0991,-0.1034,-0.108,-0.1166,-0.123,-0.1335,-0.1386,-0.1474,-0.1487,-0.1503,-0.1506,-0.1376,-0.1385,-0.1317,-0.1294,-0.1271,-0.1292,-0.1246,-0.1229,-0.1231,-0.1233,-0.1215,-0.1214,-0.1213,-0.1212,0,-0.0847,-0.0882,-0.0924,-0.1007,-0.1076,-0.1142,-0.1228,-0.126,-0.1355,-0.1449,-0.1408,-0.1378,-0.1331,-0.1286,-0.1229,-0.1185,-0.1296,-0.1231,-0.124,-0.1259,-0.1222,-0.1209,-0.1215,-0.1198,-0.12,-0.1201,-0.1202,0,-0.083,-0.0851,-0.091,-0.0969,-0.1046,-0.1076,-0.1138,-0.1175,-0.1228,-0.1318,-0.1285,-0.1277,-0.1306,-0.1213,-0.116,-0.1104,-0.1099,-0.1078,-0.1095,-0.111,-0.1072,-0.1006,-0.0897,0,0,0,0,0,-0.0813,-0.0823,-0.0877,-0.0925,-0.0989,-0.1019,-0.1117,-0.1175,-0.1259,-0.1198,-0.1241,-0.118,-0.1099,-0.1096,-0.1009,-0.1105,-0.1107,-0.1001,-0.1094,-0.1125,-0.114,-0.1105,0,0,0,0,0,0,-0.0803,-0.0841,-0.085,-0.0857,-0.0875,-0.0927,-0.0972,-0.1031,-0.1007,-0.1089,-0.1045,-0.1102,-0.1036,-0.1112,-0.0977,-0.0976,-0.1011,-0.1006,-0.1003,-0.1116,-0.113,-0.1142,-0.1112,0,0,0,0,0]},{"header":{"parameterUnit":"m.s-1","parameterCategory":2,"la1":30.2991,"la2":30.254,"lo1":-89.0895,"lo2":-89.0444,"dx":0.0017,"dy":0.0017,"nx":28,"ny":28,"refTime":"2022-11-07T03:00:00:Z","depth":"4","parameterNumber":3,"parameterNumberName":"V-component_of_CURRENTS"},"data":[0,0,0,0,0,0,0,0,0,0,0,0,0,0,0,0,0,0,0,0,0,0,0,0,0,0,0,0,0,0,0,0,0,0,0,0,0,0,0,0,0,0,0,0,0,0,0,0,0,0,0,0,0,0,0,0,0,0,-0.0094,-0.0094,0,-0.0083,-0.0083,-0.0082,-0.0066,-0.0066,-0.0065,-0.0065,-0.0013,-0.0012,-0.0011,0,0,0,0,0,0,0,0,0,0,0,0,0,-0.0079,-0.0079,-0.0094,-0.0094,-0.0094,-0.0083,-0.0083,-0.0082,-0.0066,-0.0066,-0.0065,-0.0065,-0.0014,-0.0012,-0.0011,0,0,0,0,0,0,0,0,0,0,0,0,0,-0.0077,-0.0079,-0.0094,-0.0086,-0.0085,-0.0083,-0.0083,-0.0082,-0.0066,-0.0066,-0.0065,-0.0065,-0.0014,-0.0012,-0.001,-0.0003,0,0,-0.0005,-0.0004,0,0,0,0,0,0,0,0,-0.0077,-0.0077,-0.0087,-0.0086,-0.0085,-0.0077,-0.0058,-0.0054,-0.0066,-0.0071,-0.0065,-0.0065,-0.0032,-0.0029,-0.0025,-0.0,0.0002,-0.0004,-0.0003,-0.0003,-0.0002,0,0,0,0,0,0,0,-0.0077,-0.0077,-0.0088,-0.0087,-0.0086,-0.0075,-0.0075,-0.0058,-0.0051,-0.0071,-0.007,-0.0072,-0.0031,-0.0027,-0.0024,0.0003,-0.0005,-0.0003,-0.0002,-0.0001,0.0051,0.0052,0,0,0,0,0,0,-0.0084,-0.0078,-0.0088,-0.0087,-0.0083,-0.0076,-0.0075,-0.0078,-0.0052,-0.0048,-0.0072,-0.0071,-0.003,-0.0026,-0.0022,-0.0007,-0.0003,-0.0001,0.0,0.0051,0.0051,0.0052,0,0,0,0,0,0,-0.0083,-0.0085,-0.0088,-0.0084,-0.0084,-0.0077,-0.008,-0.0078,-0.0078,-0.0053,-0.0049,-0.0074,-0.003,-0.0024,-0.0006,-0.0005,0.0,0.0002,0.0051,0.0051,0.0051,0.0021,0,0,0,0,0,0,-0.0083,-0.0085,-0.0088,-0.0084,-0.0084,-0.0092,-0.0081,-0.0078,-0.008,-0.0079,-0.0054,-0.0049,-0.0029,-0.0009,-0.0004,-0.0002,0.0003,0.005,0.0051,0.0051,0.0021,0.002,0.0019,0,0,0,0,0,-0.0082,-0.0091,-0.0089,-0.009,-0.009,-0.0092,-0.0091,-0.0084,-0.0081,-0.0083,-0.0062,-0.005,-0.0002,-0.0007,-0.0002,0.0001,0.005,0.0051,0.0051,0.0022,0.002,0.0019,0,0,0,0,0,0,-0.0085,-0.009,-0.0088,-0.0097,-0.0096,-0.009,-0.0093,-0.0089,-0.0076,-0.0074,-0.0048,-0.0042,-0.0025,-0.0007,-0.0013,0.0019,0.0027,0.0029,0.0003,0.0001,-0.0,-0.0007,0.0005,0,0,0,0,0,-0.0088,-0.0098,-0.0097,-0.0105,-0.0106,-0.0101,-0.0101,-0.0098,-0.0088,-0.0082,-0.0064,-0.004,-0.0018,-0.0006,0.0015,0.003,0.0056,0.0037,0.0036,0.0035,0.0034,0.0079,0.0082,0.0053,0.0053,0.0053,0,0,-0.0092,-0.0096,-0.0101,-0.0106,-0.0105,-0.0114,-0.01,-0.0106,-0.0107,-0.0078,-0.007,-0.0047,-0.0015,0.0004,0.0013,0.0018,0.0055,0.0035,0.0034,0.0034,0.008,0.0083,0.0085,0.0054,0.0054,0.0054,0,0,-0.011,-0.0108,-0.0124,-0.0126,-0.0131,-0.0126,-0.0131,-0.0127,-0.0117,-0.0109,-0.0084,-0.0059,-0.0033,-0.0005,0.0013,0.0017,0.0045,0.0022,0.0012,0.0055,0.0058,0.0061,0.0091,0.0097,0.0023,0.0023,0.0023,0,-0.0114,-0.0136,-0.0128,-0.0143,-0.0149,-0.0135,-0.0152,-0.0139,-0.0128,-0.0115,-0.0111,-0.0057,-0.0035,0.0002,0.0001,0.0014,0.0039,0.0013,0.0053,0.0057,0.006,0.0091,0.0097,0.0022,0.0022,0.0022,0.0022,0,-0.0146,-0.0162,-0.0171,-0.0186,-0.0186,-0.02,-0.0184,-0.0177,-0.0164,-0.0147,-0.0113,-0.0076,-0.0043,-0.003,-0.0015,0.0021,0.003,0.0044,0.0055,0.0061,0.0093,0.01,0.002,0.002,0.0021,0.0021,0,0,-0.0162,-0.0191,-0.0195,-0.0209,-0.0212,-0.0216,-0.021,-0.0197,-0.0189,-0.016,-0.0139,-0.0095,-0.007,-0.0049,-0.0018,0.0019,0.0058,0.0036,0.0039,0.0061,0.0148,0.0132,0.0139,0.008,0.0081,0.0082,0.0158,0,-0.0194,-0.0237,-0.0236,-0.0267,-0.0286,-0.0265,-0.026,-0.0239,-0.0213,-0.0186,-0.0129,-0.0102,-0.0077,-0.0062,-0.0019,0.0038,0.0078,0.0036,0.0143,0.0146,0.0128,0.0147,0.0086,0.0164,0.0166,0.0167,0.0168,0,-0.023,-0.0254,-0.0297,-0.0311,-0.0315,-0.0325,-0.0308,-0.0301,-0.025,-0.0225,-0.0177,-0.0135,-0.0075,-0.0057,0.0052,0.0024,0.0081,0.0128,0.0132,0.0134,0.0144,0.016,0.0182,0.0181,0.018,0.0179,0.0178,0,-0.0257,-0.0293,-0.033,-0.0338,-0.0351,-0.0354,-0.0352,-0.0316,-0.0308,-0.025,-0.0237,-0.015,-0.0114,-0.0026,0.0067,0.0061,0.0188,0.0194,0.0239,0.0238,0.0242,0.0239,0.0277,0.0277,0.0277,0.0276,0.0276,0,-0.0292,-0.032,-0.035,-0.0372,-0.0403,-0.039,-0.0404,-0.0381,-0.035,-0.0333,-0.0264,-0.0225,-0.0105,-0.0019,0.0067,0.0174,0.0193,0.0241,0.0261,0.0226,0.022,0.0247,0.0243,0.0279,0.0279,0.0278,0.0278,0,-0.0317,-0.034,-0.0386,-0.0414,-0.0425,-0.0445,-0.0457,-0.0459,-0.0424,-0.0399,-0.0384,-0.028,-0.016,-0.0041,0.011,0.0166,0.0274,0.0309,0.0258,0.0273,0.0293,0.0287,0.0362,0.0362,0.0362,0.0362,0.0362,0,-0.0337,-0.0369,-0.0426,-0.0459,-0.0478,-0.0507,-0.0526,-0.0502,-0.0495,-0.0423,-0.0406,-0.0294,-0.021,-0.0004,0.0115,0.0279,0.03,0.0342,0.0322,0.0292,0.0304,0.0297,0.029,0.0363,0.0363,0.0363,0.0363,0,-0.0373,-0.0398,-0.0436,-0.0511,-0.0549,-0.0578,-0.0592,-0.0591,-0.0543,-0.052,-0.0402,-0.0288,-0.0152,0.0008,0.0133,0.025,0.0305,0.0344,0.0344,0.0326,0.0294,0.0304,0.0297,0.0363,0.0363,0.0363,0.0363,0,-0.0402,-0.0439,-0.0498,-0.0553,-0.0603,-0.0622,-0.0627,-0.0593,-0.0572,-0.0477,-0.0433,-0.0276,-0.0176,-0.0007,0.0112,0.022,0.0242,0.0261,0.0266,0.0266,0.021,0.0153,0.0202,0,0,0,0,0,-0.043,-0.0473,-0.0536,-0.0593,-0.0635,-0.0653,-0.0658,-0.0647,-0.0598,-0.0516,-0.0468,-0.0328,-0.013,-0.0041,0.0068,0.0089,0.0235,0.0214,0.0253,0.0366,0.0365,0.0313,0,0,0,0,0,0,-0.0454,-0.0516,-0.0542,-0.06,-0.0638,-0.0673,-0.0671,-0.064,-0.0577,-0.0512,-0.0397,-0.0323,-0.0128,-0.0187,0.0066,0.0098,0.0131,0.0313,0.0314,0.0366,0.0366,0.0365,0.0312,0,0,0,0,0]}]]